Wind_Speed
68 68 66 63 60 57 54 51 52 49 52 48 47 44 42 37 36 32 30 27 27 27 26 24 17 14 13 15 16 16 14 12 10 7 6 9 11 12 13 14 14 16 17 20 22 22 22 24 24
70 71 70 68 61 59 60 57 54 54 52 51 50 48 46 42 38 39 33 30 29 30 30 27 25 18 17 19 19 18 16 15 14 12 10 11 10 12 14 14 16 18 20 20 22 23 25 27 27
72 73 73 67 63 60 64 66 60 56 54 53 53 51 49 45 42 42 41 39 39 31 28 29 26 23 21 21 22 23 23 20 18 16 16 15 16 15 17 18 19 19 21 21 23 25 25 26 29
74 75 74 69 67 71 72 70 66 59 58 57 55 54 52 51 46 43 41 41 37 37 36 30 28 26 24 26 26 27 27 27 24 22 21 20 19 17 18 19 21 22 22 25 26 26 27 29 30
75 78 74 71 73 75 79 75 71 65 61 59 57 56 55 53 49 43 40 40 39 37 37 36 35 30 30 27 28 28 30 31 28 27 24 23 22 20 19 22 24 25 28 31 33 36 34 31 29
74 77 77 73 78 80 82 80 76 71 65 62 59 60 57 57 53 52 46 45 43 41 40 36 35 29 30 31 32 33 33 34 33 30 26 27 25 27 27 26 30 32 35 36 39 40 40 36 34
72 77 78 80 83 85 86 85 81 76 71 66 62 59 61 62 59 51 54 51 45 44 40 39 34 32 32 31 31 33 36 36 35 31 32 31 29 29 29 31 34 37 42 43 43 45 42 42 41
76 76 80 80 83 87 90 89 87 81 76 68 64 65 66 62 62 58 52 50 51 42 39 39 44 39 35 33 31 32 38 38 38 38 36 32 29 30 37 38 43 44 47 46 48 50 50 49 46
83 79 75 76 84 88 90 91 89 87 78 71 70 69 66 66 63 62 60 55 54 48 44 42 45 43 43 40 36 36 42 42 42 40 39 29 29 36 44 43 44 45 49 54 54 51 50 48 48
89 82 77 75 76 90 91 94 91 87 83 75 73 75 68 65 67 66 62 62 58 55 50 46 49 46 45 43 41 39 41 42 41 39 40 35 34 43 44 44 44 50 57 55 55 55 54 54 55
95 85 83 83 78 79 91 95 93 91 86 84 78 76 73 68 68 70 66 62 60 58 56 50 51 48 48 45 42 42 45 41 42 42 41 40 42 46 48 47 51 54 51 52 53 52 59 59 57
102 94 87 89 86 80 83 96 97 92 91 88 83 81 77 73 73 70 67 63 58 56 54 54 53 47 40 40 44 42 46 46 43 44 46 48 43 46 46 47 51 55 55 56 58 60 62 60 61
108 102 94 92 92 87 83 84 100 96 95 91 87 84 84 81 75 73 67 63 63 61 58 53 50 52 47 43 39 44 46 46 46 46 49 48 50 51 51 54 55 58 58 58 56 56 56 58 58
112 106 99 96 96 93 86 86 96 98 97 94 90 90 88 85 82 75 71 68 66 65 60 57 54 55 53 49 44 42 47 48 47 46 47 51 51 53 57 60 57 52 51 47 44 53 58 59 56
118 113 106 100 101 96 90 87 77 100 101 96 91 93 92 88 83 78 78 74 73 65 65 62 60 59 57 52 48 48 48 49 49 50 50 53 55 58 61 54 45 46 44 43 50 52 54 59 58
123 119 112 108 104 99 94 79 89 102 101 101 96 94 96 89 86 83 80 79 78 73 68 70 66 63 61 54 54 51 53 53 55 53 52 49 56 62 46 51 44 41 44 42 46 50 49 59 58
129 122 116 114 109 104 95 90 87 92 98 102 101 98 93 96 90 88 83 82 83 80 74 69 65 64 66 62 63 55 53 57 55 50 50 51 56 59 56 47 47 47 53 51 53 44 53 59 56
133 128 121 117 113 106 99 96 94 90 100 99 105 101 93 85 94 93 90 86 85 83 77 76 74 73 70 66 65 63 59 57 51 50 53 57 61 55 50 42 43 47 53 51 47 48 55 64 71
133 131 125 122 116 110 105 103 97 95 96 96 103 101 97 95 96 95 92 90 87 83 84 83 82 81 76 73 66 63 60 57 55 55 55 58 57 51 49 40 37 29 29 41 45 57 59 68 72
125 136 131 125 122 113 110 105 103 99 96 99 92 99 99 97 99 97 94 91 90 87 84 85 85 82 77 78 77 70 64 57 55 49 50 53 45 51 44 29 23 31 23 39 52 63 64 72 73
117 132 136 133 126 117 115 110 108 101 96 99 94 94 99 97 97 97 95 94 91 91 91 88 87 87 83 81 81 74 67 64 59 54 52 54 49 41 42 32 26 38 48 59 65 62 72 80 80
109 125 137 139 129 123 118 113 111 105 98 99 91 84 91 91 95 98 99 93 85 95 89 92 95 91 87 85 81 78 76 74 67 64 59 59 49 50 51 54 54 57 61 63 70 74 77 85 89
101 116 134 140 133 125 122 118 113 113 106 99 93 78 80 87 91 94 92 86 88 88 90 96 95 93 91 89 85 80 73 73 72 69 66 65 55 56 63 58 67 70 71 76 81 86 88 89 94
91 107 124 141 138 130 124 121 118 115 103 94 89 83 77 78 79 91 90 88 86 87 98 91 90 93 92 87 84 81 76 74 73 75 73 72 65 64 68 71 69 69 75 82 87 88 96 103 110
82 99 114 127 141 132 128 126 117 112 102 94 86 82 76 75 73 68 80 86 87 87 90 87 87 88 90 91 90 88 85 84 77 78 76 78 63 64 69 73 77 74 72 87 93 103 109 114 120
76 88 103 112 123 127 133 127 121 111 103 95 91 87 80 74 68 65 67 74 86 88 86 85 84 84 85 86 85 83 85 86 85 82 81 80 80 71 75 73 73 76 85 92 105 109 118 121 125
65 77 95 104 115 130 135 122 120 113 104 101 97 91 88 77 69 69 60 66 68 77 80 80 81 82 82 79 78 76 79 77 79 81 79 83 83 83 82 88 92 97 103 111 115 117 125 127 129
51 69 80 98 112 121 130 127 125 114 107 103 99 96 86 78 73 65 62 58 58 59 63 64 67 74 77 79 80 80 78 79 77 78 80 81 86 90 89 90 98 103 110 115 120 124 126 130 131
46 60 70 88 103 107 125 128 125 115 103 101 95 93 85 74 68 73 70 61 57 56 52 50 54 57 58 65 73 77 76 73 73 76 78 82 84 87 90 94 98 103 108 114 116 121 124 127 125
39 54 67 80 93 104 120 124 123 113 102 95 92 87 81 77 69 72 75 70 64 61 56 52 46 45 44 50 57 58 66 70 74 76 76 78 81 83 88 92 96 99 102 106 111 110 110 109 104
Wind_Direction
225 225 224 226 223 226 223 219 214 214 216 209 204 204 205 210 211 207 200 204 215 213 231 254 245 226 238 230 252 253 246 253 259 244 262 264 275 286 291 296 299 300 306 319 323 319 314 312 315
225 224 225 224 222 225 227 223 214 214 216 214 206 206 210 209 211 208 213 214 213 222 234 246 249 236 238 242 254 252 249 265 275 281 282 275 278 281 281 288 290 298 307 311 319 319 319 317 313
225 224 223 224 223 226 229 227 220 213 215 215 210 207 206 217 215 212 213 216 221 221 229 235 246 258 244 243 248 264 263 264 270 275 274 276 278 281 288 293 299 296 303 308 314 316 315 310 310
224 224 224 224 221 225 228 228 224 218 213 217 213 210 210 214 218 216 220 222 219 222 218 228 242 252 260 247 248 260 268 268 266 267 270 274 276 284 290 292 295 301 298 301 302 303 301 304 310
223 224 223 222 222 223 228 226 225 221 216 214 217 214 214 214 217 215 216 217 216 223 225 225 234 237 248 261 260 258 261 265 264 266 267 276 284 286 290 294 290 292 294 296 300 304 302 304 307
223 222 222 218 221 223 226 224 223 222 217 215 214 216 215 216 219 216 215 215 217 226 227 227 228 229 241 246 261 267 261 263 262 261 267 279 281 281 288 295 298 293 296 297 297 301 300 304 303
226 220 218 215 216 220 225 224 221 221 218 215 214 213 215 216 218 216 222 222 227 230 228 225 224 234 238 250 254 265 269 260 262 259 269 278 289 288 291 298 302 299 299 298 299 299 302 302 302
228 221 216 215 216 218 222 224 223 219 219 214 215 216 217 217 220 217 218 221 226 227 218 235 235 237 239 248 253 262 268 258 259 262 268 276 289 296 307 308 310 311 312 310 307 299 299 301 304
225 223 216 213 216 217 220 225 225 220 216 214 213 218 220 218 220 222 219 219 228 222 226 231 236 237 240 249 257 254 265 261 263 263 262 278 294 311 321 313 310 312 313 310 304 303 302 301 303
224 221 219 215 216 217 219 221 223 222 216 214 213 216 218 219 220 221 224 221 230 229 229 230 238 240 246 253 255 248 253 258 265 262 264 279 287 304 312 312 311 307 307 306 304 302 302 304 313
220 218 218 218 216 218 218 220 222 222 217 214 214 217 218 220 223 224 223 223 228 230 230 241 242 245 246 249 248 252 249 258 261 260 266 288 289 302 311 309 305 305 306 307 307 305 309 306 309
218 217 216 219 217 218 218 218 220 219 220 215 214 216 220 219 222 225 225 223 219 232 232 240 239 240 244 250 252 256 255 255 260 261 271 284 295 303 299 299 305 307 303 302 303 303 308 309 309
217 215 213 216 216 216 218 216 219 218 220 217 214 216 217 221 221 224 225 224 220 224 234 235 239 241 240 248 247 253 252 254 257 268 272 280 290 298 300 304 306 306 300 300 308 306 308 311 309
216 214 213 214 216 214 216 217 214 219 219 218 215 217 217 218 221 222 221 222 222 228 231 231 233 240 242 242 239 247 252 254 259 269 275 280 291 294 297 301 306 307 303 303 307 311 312 309 310
215 213 213 212 215 215 214 216 212 218 217 218 216 218 219 218 221 221 220 222 222 227 230 230 229 236 237 237 241 245 249 255 258 266 274 283 291 295 302 306 302 306 308 303 306 311 315 315 310
215 212 211 212 213 215 213 212 214 216 214 216 217 217 219 218 219 221 221 220 222 225 225 230 229 235 236 237 242 246 252 255 259 264 273 292 296 304 303 299 296 300 309 311 306 313 310 305 304
213 212 210 210 209 213 213 213 213 215 213 214 216 217 218 219 218 222 224 222 223 225 225 223 228 231 234 235 243 248 253 255 263 270 281 295 299 304 306 301 299 300 309 306 311 301 305 306 305
212 212 208 208 209 212 212 213 214 215 213 213 216 217 215 220 220 221 223 225 224 226 228 224 226 231 235 232 243 246 251 254 263 270 281 290 298 298 307 300 299 300 309 309 306 311 295 299 299
210 212 208 207 207 211 211 213 216 214 211 212 214 216 215 217 222 222 224 226 228 229 229 230 233 236 233 237 244 246 251 255 263 271 283 289 296 296 301 304 301 302 300 299 291 299 295 296 297
209 210 209 205 207 209 211 212 217 215 212 213 213 215 216 217 221 224 224 227 228 231 233 234 236 238 237 240 248 250 248 257 265 276 280 286 285 296 302 289 277 287 259 268 280 286 283 283 288
209 209 210 206 206 209 211 210 217 215 210 213 211 214 216 218 219 222 226 226 230 230 233 237 238 239 241 240 244 252 247 258 260 269 276 279 281 282 274 264 259 252 258 263 271 281 285 283 289
210 209 209 209 208 208 209 208 216 216 212 212 212 212 216 220 221 222 224 226 228 232 234 239 239 241 241 244 247 250 250 259 263 267 270 273 274 273 281 260 256 256 256 266 275 284 286 286 289
211 210 209 210 209 207 209 208 214 217 212 209 211 211 215 219 221 223 226 229 231 233 235 239 242 241 242 245 248 251 256 259 262 265 268 272 272 268 269 269 264 267 270 274 280 282 284 282 286
211 211 208 209 209 209 208 208 213 219 212 208 208 212 214 217 222 224 226 228 230 232 235 238 243 244 246 246 249 252 255 260 262 265 265 270 274 271 274 264 262 267 272 274 277 281 283 282 285
210 210 210 209 210 208 207 207 213 218 212 207 207 212 216 219 219 224 228 230 233 235 237 240 244 246 248 249 251 252 255 258 260 263 265 267 266 268 268 261 258 260 270 277 281 282 285 286 290
213 209 211 209 209 206 208 205 211 216 212 207 206 210 216 219 219 226 230 233 235 238 241 241 244 248 250 252 253 255 256 257 259 261 264 265 266 261 257 262 263 264 270 273 280 280 286 289 294
215 211 208 208 206 205 206 202 212 214 210 208 205 209 212 213 212 222 230 234 236 240 243 245 247 250 251 253 255 258 260 262 262 262 263 264 267 266 265 264 264 270 275 277 282 282 289 291 293
214 211 208 207 208 205 202 202 208 211 210 208 206 209 209 214 213 215 223 233 234 239 242 245 249 251 254 254 256 258 259 262 263 264 264 265 267 268 271 271 271 273 276 280 282 287 290 291 293
209 207 204 207 208 205 202 203 206 208 209 209 208 209 206 210 215 215 220 224 234 236 238 241 247 252 256 256 256 258 260 263 265 265 267 268 269 270 273 276 277 278 281 282 285 289 293 294 297
205 201 202 202 204 203 201 204 206 206 207 207 208 208 208 209 215 219 220 225 229 237 241 248 254 263 261 265 266 267 266 268 268 269 270 272 273 274 276 277 278 279 282 284 287 292 294 298 301
Height
10888 10894 10901 10908 10918 10926 10929 10935 10941 10947 10951 10957 10963 10969 10974 10979 10983 10986 10990 10992 10994 10995 10996 10997 10998 10999 11001 11003 11003 11004 11004 11005 11006 11007 11007 11007 11007 11008 11007 11006 11005 11004 11004 11002 11000 10999 10996 10995 10994
10875 10882 10890 10899 10912 10918 10920 10923 10931 10939 10945 10952 10957 10963 10968 10973 10977 10982 10985 10988 10989 10992 10994 10995 10995 10996 10997 11000 11001 11002 11003 11004 11005 11005 11006 11006 11006 11006 11005 11005 11003 11002 11001 11000 10998 10996 10994 10991 10990
10861 10869 10878 10891 10904 10910 10907 10910 10922 10932 10939 10946 10951 10956 10962 10967 10970 10975 10979 10982 10984 10987 10989 10990 10992 10993 10994 10996 10998 11000 11002 11003 11004 11004 11004 11003 11003 11002 11003 11003 11002 11000 10999 10997 10996 10993 10991 10987 10983
10847 10854 10868 10882 10894 10889 10889 10897 10912 10924 10932 10938 10945 10950 10955 10958 10964 10969 10973 10976 10979 10980 10983 10986 10988 10989 10991 10992 10995 10998 11000 11001 11002 11002 11002 11001 11001 11001 11000 10999 10998 10997 10996 10993 10991 10989 10986 10983 10980
10831 10841 10855 10872 10877 10876 10873 10888 10900 10913 10922 10931 10937 10943 10948 10952 10958 10964 10967 10970 10973 10976 10978 10980 10982 10985 10987 10989 10991 10994 10996 10998 10998 10999 10999 10998 10998 10998 10997 10996 10995 10993 10991 10989 10987 10984 10982 10979 10976
10816 10827 10842 10856 10858 10857 10858 10873 10886 10900 10911 10921 10927 10935 10942 10946 10951 10955 10960 10964 10966 10969 10972 10974 10977 10979 10982 10986 10988 10990 10992 10994 10994 10995 10994 10995 10995 10995 10994 10993 10992 10991 10988 10985 10981 10979 10976 10975 10972
10803 10810 10824 10832 10835 10840 10844 10857 10873 10885 10900 10909 10920 10927 10932 10936 10941 10948 10952 10957 10960 10963 10966 10969 10971 10973 10977 10981 10984 10986 10987 10989 10991 10992 10992 10992 10992 10991 10990 10989 10988 10986 10983 10981 10979 10975 10972 10970 10967
10783 10794 10805 10816 10823 10827 10828 10842 10854 10874 10886 10904 10914 10917 10919 10929 10935 10941 10946 10950 10954 10956 10959 10963 10966 10969 10973 10976 10979 10981 10983 10985 10986 10988 10989 10989 10988 10987 10988 10986 10984 10981 10979 10976 10973 10969 10967 10964 10961
10761 10776 10792 10798 10804 10810 10816 10827 10842 10858 10880 10896 10902 10905 10913 10921 10927 10932 10937 10943 10945 10950 10953 10957 10960 10964 10967 10970 10974 10977 10979 10981 10982 10984 10985 10984 10984 10984 10982 10980 10977 10974 10971 10968 10964 10961 10958 10955 10953
10739 10761 10777 10781 10783 10791 10799 10812 10828 10846 10866 10883 10891 10894 10902 10910 10917 10922 10928 10935 10938 10944 10948 10952 10955 10958 10962 10965 10969 10972 10973 10977 10979 10981 10981 10981 10981 10979 10976 10972 10968 10965 10961 10957 10954 10951 10948 10946 10944
10722 10742 10755 10761 10766 10771 10787 10799 10814 10832 10855 10865 10878 10886 10894 10901 10906 10911 10919 10925 10931 10936 10941 10945 10949 10953 10957 10960 10963 10966 10969 10972 10974 10975 10976 10976 10974 10970 10967 10964 10959 10956 10952 10948 10945 10942 10941 10937 10934
10698 10718 10734 10741 10750 10759 10769 10785 10798 10820 10832 10850 10866 10876 10884 10887 10893 10903 10911 10919 10925 10928 10934 10937 10941 10945 10950 10953 10956 10961 10964 10966 10968 10969 10969 10967 10964 10961 10957 10953 10950 10947 10943 10939 10936 10933 10929 10926 10922
10675 10694 10711 10721 10731 10739 10750 10767 10780 10804 10815 10834 10852 10861 10867 10874 10884 10893 10904 10913 10919 10922 10924 10929 10934 10938 10942 10947 10952 10955 10957 10958 10958 10958 10959 10958 10955 10952 10949 10944 10941 10936 10931 10926 10924 10921 10917 10914 10909
10652 10676 10692 10702 10711 10721 10736 10749 10771 10786 10802 10816 10837 10844 10852 10860 10871 10884 10895 10901 10908 10911 10915 10919 10924 10929 10935 10939 10943 10946 10948 10948 10950 10951 10950 10947 10947 10944 10939 10935 10931 10924 10918 10914 10912 10910 10906 10903 10898
10626 10650 10669 10684 10693 10706 10717 10734 10772 10761 10786 10805 10822 10829 10837 10852 10864 10874 10881 10888 10898 10904 10907 10912 10915 10920 10926 10931 10934 10937 10938 10940 10941 10942 10940 10941 10940 10935 10929 10923 10919 10913 10908 10905 10903 10900 10897 10892 10887
10601 10625 10648 10660 10675 10689 10704 10738 10738 10741 10767 10787 10802 10812 10823 10843 10852 10860 10868 10879 10885 10890 10896 10902 10908 10914 10918 10923 10925 10927 10929 10932 10933 10933 10934 10934 10931 10926 10916 10912 10907 10902 10898 10894 10892 10888 10885 10881 10875
10577 10602 10625 10639 10657 10670 10697 10707 10720 10728 10754 10771 10784 10796 10816 10828 10842 10851 10857 10864 10870 10879 10887 10894 10900 10905 10908 10912 10914 10918 10922 10924 10926 10929 10928 10926 10923 10916 10908 10904 10897 10889 10884 10881 10878 10876 10872 10871 10868
10555 10580 10601 10622 10639 10656 10680 10690 10696 10715 10739 10752 10764 10781 10805 10816 10826 10833 10842 10849 10859 10868 10876 10883 10887 10892 10899 10904 10906 10908 10912 10917 10923 10922 10921 10920 10916 10910 10901 10891 10883 10876 10872 10868 10868 10866 10863 10858 10856
10534 10559 10580 10600 10617 10635 10657 10669 10682 10695 10720 10737 10755 10770 10792 10803 10809 10822 10831 10839 10849 10857 10864 10869 10872 10881 10890 10894 10896 10900 10906 10914 10918 10916 10914 10911 10910 10901 10894 10884 10876 10869 10861 10860 10860 10858 10854 10848 10843
10512 10535 10557 10576 10594 10616 10636 10659 10659 10682 10713 10727 10744 10762 10775 10789 10799 10811 10820 10828 10839 10848 10854 10855 10863 10872 10876 10881 10884 10889 10900 10909 10911 10908 10902 10900 10903 10893 10886 10881 10871 10870 10863 10853 10850 10846 10842 10839 10835
10489 10514 10536 10556 10576 10596 10613 10639 10646 10669 10694 10714 10736 10750 10762 10772 10787 10800 10807 10819 10827 10836 10838 10846 10852 10857 10863 10871 10876 10883 10896 10900 10901 10898 10893 10891 10891 10884 10882 10872 10866 10863 10851 10845 10837 10834 10832 10826 10821
10474 10494 10514 10535 10557 10574 10596 10627 10635 10653 10682 10703 10726 10743 10754 10765 10775 10783 10794 10808 10822 10816 10833 10832 10835 10845 10852 10858 10868 10876 10886 10890 10890 10887 10884 10881 10881 10877 10874 10869 10857 10849 10841 10837 10832 10828 10822 10815 10810
10455 10472 10493 10514 10541 10562 10582 10609 10623 10626 10659 10693 10720 10735 10746 10756 10766 10775 10787 10804 10808 10815 10818 10818 10824 10833 10841 10850 10861 10867 10874 10879 10878 10875 10871 10869 10869 10870 10867 10859 10853 10847 10840 10832 10822 10815 10808 10804 10797
10440 10456 10473 10496 10520 10545 10567 10598 10600 10610 10666 10698 10715 10726 10736 10747 10754 10768 10781 10789 10796 10797 10791 10816 10817 10825 10831 10843 10850 10857 10864 10867 10866 10862 10861 10861 10858 10854 10853 10850 10842 10837 10830 10822 10814 10803 10797 10790 10783
10423 10438 10453 10471 10495 10542 10555 10574 10600 10612 10657 10691 10710 10720 10728 10736 10751 10763 10768 10776 10777 10778 10793 10805 10811 10817 10823 10833 10843 10848 10852 10851 10855 10853 10854 10853 10850 10845 10841 10838 10832 10827 10819 10811 10804 10794 10784 10776 10768
10410 10423 10442 10468 10497 10531 10533 10567 10579 10610 10649 10679 10694 10703 10713 10733 10746 10755 10761 10764 10767 10774 10783 10795 10802 10807 10816 10824 10830 10837 10836 10838 10843 10843 10843 10843 10838 10839 10835 10831 10824 10817 10810 10801 10791 10780 10769 10758 10751
10401 10417 10428 10455 10477 10493 10516 10574 10572 10596 10633 10658 10678 10685 10702 10721 10737 10745 10751 10755 10762 10767 10775 10785 10792 10797 10802 10809 10817 10819 10817 10826 10830 10833 10831 10827 10827 10824 10822 10819 10814 10807 10800 10785 10775 10768 10757 10746 10736
10392 10404 10424 10442 10458 10481 10519 10544 10552 10583 10618 10642 10663 10679 10698 10717 10730 10741 10744 10747 10752 10757 10767 10777 10781 10786 10791 10800 10803 10802 10810 10815 10820 10820 10819 10819 10815 10810 10808 10807 10801 10794 10782 10771 10762 10755 10742 10730 10725
10385 10398 10417 10433 10451 10487 10518 10528 10546 10577 10608 10639 10662 10678 10700 10712 10724 10730 10734 10739 10745 10750 10760 10769 10773 10779 10785 10788 10789 10792 10800 10805 10806 10806 10806 10806 10802 10799 10796 10792 10785 10776 10769 10760 10751 10740 10731 10720 10711
10381 10390 10403 10422 10447 10477 10508 10524 10543 10571 10602 10630 10653 10677 10695 10706 10716 10718 10724 10734 10739 10744 10754 10761 10768 10775 10775 10776 10777 10783 10789 10791 10792 10793 10795 10793 10789 10787 10784 10778 10772 10765 10758 10750 10740 10730 10720 10707 10699